SORCE

Last updated on Tue Dec 03 2024 00:02:34 GMT+0000 (Coordinated Universal Time)

1 27651U 03004A 24337.34604998 .00008498 00000+0 71710-3 0 9997 2 27651 39.9909 214.8564 0021331 340.1382 19.8578 14.97914683187447
UTC large
Height (km)
Speed (km/s)
/
Latitude / Longitude
Inclination (degrees)
Orbital Period (minutes)
Azimuth
Elevation
Range (km)
Doppler Factor

Next 0 passes for location: London (51.5072 / 0.1276)

Sorry there are no passes over London.